Tracking 19634 objects as of 21-May-2019
HD Live streaming from Space Station
objects crossing your sky now

DIADEME 2

Track DIADEME 2 now!
10-day predictions
DIADEME 2 is classified as:


NORAD ID: 2680
Int'l Code: 1967-014A
Perigee: 585.7 km
Apogee: 1,661.9 km
Inclination: 39.4 °
Period: 107.6 minutes
Semi major axis: 7494 km
RCS: 0.6374 m2 (medium)
Launch date: February 15, 1967
Source: France (FR)
Launch site: HAMMA GUIRA SPACE TRACK RANGE (HGSTR)
aabbcc
Your satellite tracking list
Your tracking list is empty




NASA's NSSDC Master Catalog

Two Line Element Set (TLE):
1  2680U 67014A   19140.84552697  .00000091  00000-0  73771-4 0  9994
2  2680  39.4415  37.3509 0717945 114.9800 252.7218 13.38013290529921
Source of the keplerian elements: AFSPC